• In Kazakhstan
  • List of Countries
  • For 7 days
  • Water Temperature
  • Weather Map
  • News
  • Weather Widgets
  • user-avatar
    Login

    Hourly Weather Innsbruck

    Today, 6 June, Saturday

    Time Temperature Precipitation Wind Pressure Humidity
    00:00 +3°C° 0 mm 1 mps 588 mmHg 91%
    01:00 +2°C° 0 mm 2 mps 588 mmHg 91%
    02:00 +2°C° 0 mm 2 mps 588 mmHg 92%
    03:00 +2°C° 0 mm 2 mps 588 mmHg 92%
    04:00 +2°C° 0 mm 2 mps 588 mmHg 92%
    05:00 +3°C° 0 mm 2 mps 589 mmHg 91%
    06:00 +5°C° 0 mm 2 mps 590 mmHg 89%
    07:00 +6°C° 0 mm 2 mps 590 mmHg 88%
    08:00 +7°C° 0.1 mm 2 mps 591 mmHg 84%
    09:00 +8°C° 0.1 mm 2 mps 591 mmHg 80%
    10:00 +10°C° 0.1 mm 2 mps 592 mmHg 75%
    11:00 +9°C° 0.5 mm 2 mps 592 mmHg 78%
    12:00 +9°C° 0.5 mm 2 mps 592 mmHg 81%
    13:00 +9°C° 0.5 mm 2 mps 592 mmHg 83%
    14:00 +9°C° 0.7 mm 2 mps 591 mmHg 85%
    15:00 +8°C° 0.7 mm 2 mps 591 mmHg 88%
    16:00 +8°C° 0.7 mm 2 mps 591 mmHg 90%
    17:00 +8°C° 0.8 mm 1 mps 591 mmHg 92%
    18:00 +8°C° 0.8 mm 1 mps 591 mmHg 95%
    19:00 +7°C° 0.8 mm 1 mps 590 mmHg 98%
    20:00 +6°C° 0.5 mm 1 mps 590 mmHg 98%
    21:00 +6°C° 0.5 mm 1 mps 591 mmHg 98%
    22:00 +6°C° 0.5 mm 1 mps 591 mmHg 98%
    23:00 +6°C° 0.2 mm 1 mps 591 mmHg 98%

    Tomorrow, 7 June, Sunday

    Time Temperature Precipitation Wind Pressure Humidity
    00:00 +6°C° 0.2 mm 1 mps 591 mmHg 98%
    01:00 +5°C° 0.2 mm 1 mps 590 mmHg 98%
    02:00 +5°C° 0.1 mm 1 mps 590 mmHg 98%
    03:00 +5°C° 0.1 mm 1 mps 590 mmHg 98%
    04:00 +5°C° 0.1 mm 1 mps 590 mmHg 98%
    05:00 +5°C° 0.1 mm 1 mps 590 mmHg 97%
    06:00 +6°C° 0.1 mm 1 mps 590 mmHg 97%
    07:00 +6°C° 0.1 mm 1 mps 590 mmHg 96%
    08:00 +6°C° 0.5 mm 1 mps 591 mmHg 96%
    09:00 +6°C° 0.5 mm 1 mps 591 mmHg 96%
    10:00 +5°C° 0.5 mm 2 mps 591 mmHg 97%
    11:00 +5°C° 0.8 mm 2 mps 591 mmHg 97%
    12:00 +6°C° 0.8 mm 1 mps 591 mmHg 97%
    13:00 +6°C° 0.8 mm 1 mps 591 mmHg 97%
    14:00 +4°C° 2.5 mm 2 mps 591 mmHg 97%
    15:00 +4°C° 2.5 mm 2 mps 591 mmHg 98%
    16:00 +3°C° 2.5 mm 2 mps 591 mmHg 98%
    17:00 +3°C° 2.8 mm 2 mps 591 mmHg 98%
    18:00 +3°C° 2.8 mm 1 mps 591 mmHg 98%
    19:00 +3°C° 2.8 mm 1 mps 591 mmHg 98%
    20:00 +3°C° 1.2 mm 1 mps 591 mmHg 98%
    21:00 +2°C° 1.2 mm 1 mps 591 mmHg 98%
    22:00 +2°C° 1.2 mm 1 mps 591 mmHg 98%
    23:00 +2°C° 0.4 mm 1 mps 591 mmHg 97%

    Day after tomorrow, 8 June, Monday

    Time Temperature Precipitation Wind Pressure Humidity
    00:00 +1°C° 0.4 mm 0 mps 591 mmHg 97%
    01:00 +1°C° 0.4 mm 0 mps 590 mmHg 97%
    02:00 0°C° 0 mm 0 mps 590 mmHg 96%
    03:00 0°C° 0 mm 0 mps 590 mmHg 96%
    04:00 0°C° 0 mm 0 mps 590 mmHg 96%
    05:00 +1°C° 0 mm 0 mps 590 mmHg 95%
    06:00 +2°C° 0 mm 0 mps 591 mmHg 94%
    07:00 +3°C° 0 mm 0 mps 592 mmHg 93%
    08:00 +5°C° 0 mm 1 mps 592 mmHg 90%
    09:00 +6°C° 0 mm 1 mps 592 mmHg 87%
    10:00 +7°C° 0 mm 1 mps 593 mmHg 84%
    11:00 +7°C° 0.1 mm 1 mps 593 mmHg 84%
    12:00 +7°C° 0.1 mm 1 mps 593 mmHg 84%
    13:00 +6°C° 0.1 mm 2 mps 593 mmHg 84%
    14:00 +7°C° 0.5 mm 1 mps 593 mmHg 87%
    15:00 +7°C° 0.5 mm 1 mps 592 mmHg 91%
    16:00 +6°C° 0.5 mm 1 mps 592 mmHg 94%
    17:00 +6°C° 0.9 mm 1 mps 592 mmHg 95%
    18:00 +5°C° 0.9 mm 1 mps 592 mmHg 97%
    19:00 +5°C° 0.9 mm 1 mps 592 mmHg 98%
    20:00 +5°C° 0.2 mm 1 mps 592 mmHg 98%
    21:00 +5°C° 0.2 mm 1 mps 592 mmHg 98%
    22:00 +4°C° 0.2 mm 0 mps 592 mmHg 99%
    23:00 +4°C° 0.5 mm 0 mps 592 mmHg 99%

    9 June, Tuesday

    Time Temperature Precipitation Wind Pressure Humidity
    00:00 +4°C° 0.5 mm 0 mps 592 mmHg 99%
    01:00 +4°C° 0.5 mm 0 mps 592 mmHg 99%
    02:00 +4°C° 0.9 mm 0 mps 592 mmHg 99%
    03:00 +4°C° 0.9 mm 0 mps 592 mmHg 99%
    04:00 +4°C° 0.9 mm 0 mps 592 mmHg 99%
    05:00 +4°C° 0.4 mm 0 mps 592 mmHg 98%
    06:00 +4°C° 0.4 mm 0 mps 592 mmHg 98%
    07:00 +4°C° 0.4 mm 0 mps 592 mmHg 97%
    08:00 +5°C° 0.1 mm 0 mps 593 mmHg 96%
    09:00 +5°C° 0.1 mm 0 mps 593 mmHg 95%
    10:00 +6°C° 0.1 mm 1 mps 593 mmHg 95%
    11:00 +7°C° 0.2 mm 1 mps 594 mmHg 94%
    12:00 +7°C° 0.2 mm 1 mps 594 mmHg 94%
    13:00 +7°C° 0.2 mm 1 mps 594 mmHg 94%
    14:00 +7°C° 0.4 mm 1 mps 594 mmHg 95%
    15:00 +7°C° 0.4 mm 1 mps 593 mmHg 96%
    16:00 +7°C° 0.4 mm 1 mps 593 mmHg 97%
    17:00 +6°C° 0.4 mm 1 mps 593 mmHg 98%
    18:00 +6°C° 0.4 mm 1 mps 593 mmHg 98%
    19:00 +6°C° 0.4 mm 1 mps 593 mmHg 99%
    20:00 +6°C° 0.4 mm 1 mps 593 mmHg 99%
    21:00 +5°C° 0.4 mm 1 mps 593 mmHg 99%
    22:00 +5°C° 0.4 mm 1 mps 593 mmHg 99%
    23:00 +5°C° 0.2 mm 1 mps 592 mmHg 99%

    10 June, Wednesday

    Time Temperature Precipitation Wind Pressure Humidity
    00:00 +4°C° 0.2 mm 0 mps 592 mmHg 99%
    01:00 +4°C° 0.2 mm 0 mps 592 mmHg 99%
    02:00 +4°C° 0.8 mm 0 mps 592 mmHg 99%
    03:00 +4°C° 0.8 mm 0 mps 591 mmHg 98%
    04:00 +4°C° 0.8 mm 0 mps 591 mmHg 98%
    05:00 +4°C° 0.5 mm 0 mps 592 mmHg 97%
    06:00 +5°C° 0.5 mm 0 mps 592 mmHg 97%
    07:00 +5°C° 0.5 mm 0 mps 592 mmHg 96%
    08:00 +6°C° 0.2 mm 0 mps 592 mmHg 94%
    09:00 +6°C° 0.2 mm 0 mps 593 mmHg 92%
    10:00 +8°C° 0.2 mm 1 mps 593 mmHg 90%
    11:00 +8°C° 0.6 mm 1 mps 593 mmHg 91%
    12:00 +8°C° 0.6 mm 1 mps 594 mmHg 92%
    13:00 +7°C° 0.6 mm 2 mps 594 mmHg 93%
    14:00 +8°C° 1.2 mm 1 mps 594 mmHg 93%
    15:00 +8°C° 1.2 mm 1 mps 593 mmHg 93%
    16:00 +8°C° 1.2 mm 1 mps 593 mmHg 92%
    17:00 +7°C° 0.7 mm 1 mps 593 mmHg 94%
    18:00 +7°C° 0.7 mm 1 mps 593 mmHg 96%
    19:00 +7°C° 0.7 mm 1 mps 593 mmHg 97%
    20:00 +5°C° 0.8 mm 0 mps 593 mmHg 97%
    21:00 +5°C° 0.8 mm 0 mps 593 mmHg 98%
    22:00 +5°C° 0.8 mm 0 mps 593 mmHg 98%
    23:00 +5°C° 1.1 mm 0 mps 593 mmHg 98%

    11 June, Thursday

    Time Temperature Precipitation Wind Pressure Humidity
    00:00 +4°C° 1.1 mm 0 mps 593 mmHg 97%
    01:00 +4°C° 1.1 mm 0 mps 593 mmHg 97%
    02:00 +4°C° 0.7 mm 0 mps 593 mmHg 97%
    03:00 +4°C° 0.7 mm 0 mps 593 mmHg 96%
    04:00 +4°C° 0.7 mm 0 mps 592 mmHg 96%
    05:00 +4°C° 0.5 mm 0 mps 593 mmHg 96%
    06:00 +5°C° 0.5 mm 0 mps 593 mmHg 96%
    07:00 +5°C° 0.5 mm 0 mps 593 mmHg 95%
    08:00 +5°C° 0.2 mm 0 mps 593 mmHg 94%
    09:00 +7°C° 0.2 mm 1 mps 593 mmHg 92%
    10:00 +8°C° 0.2 mm 1 mps 594 mmHg 90%
    11:00 +8°C° 0.5 mm 1 mps 594 mmHg 89%
    12:00 +9°C° 0.5 mm 1 mps 594 mmHg 88%
    13:00 +8°C° 0.5 mm 2 mps 594 mmHg 87%
    14:00 +8°C° 0.6 mm 2 mps 594 mmHg 88%
    15:00 +8°C° 0.6 mm 2 mps 594 mmHg 89%
    16:00 +7°C° 0.6 mm 2 mps 594 mmHg 90%
    17:00 +7°C° 0.3 mm 2 mps 593 mmHg 92%
    18:00 +6°C° 0.3 mm 2 mps 593 mmHg 95%
    19:00 +5°C° 0.3 mm 2 mps 593 mmHg 97%
    20:00 +6°C° 0.2 mm 1 mps 593 mmHg 97%
    21:00 +5°C° 0.2 mm 1 mps 593 mmHg 98%
    22:00 +5°C° 0.2 mm 1 mps 593 mmHg 98%
    23:00 +5°C° 0.1 mm 1 mps 593 mmHg 98%
    Show more